Tracking 20623 objects as of 3-Apr-2020
HD Live streaming from Space Station
objects crossing your sky now

SL-8 R/B

Track SL-8 R/B now!
10-day predictions


NORAD ID: 5555
Int'l Code: 1971-086J
Perigee: 1,509.5 km
Apogee: 1,629.7 km
Inclination: 74.0 °
Period: 117.4 minutes
Semi major axis: 7940 km
RCS: 6.6314 m2 (large)
Launch date: October 13, 1971
Source: Commonwealth of Independent States (former USSR) (CIS)
Launch site: PLESETSK MISSILE AND SPACE COMPLEX (PKMTR)

Note: This is a ROCKET BODY
aabbcc
Your satellite tracking list
Your tracking list is empty




NASA's NSSDC Master Catalog

Two Line Element Set (TLE):
1  5555U 71086J   20094.25684809 -.00000036 +00000-0 -18146-3 0  9993
2  5555 074.0226 022.7134 0075664 349.6462 163.6869 12.26944519170970
Source of the keplerian elements: AFSPC